Volver al catálogo

STARLINK-30812

ActivoComunicacionesVLEO
NORAD 58168·PAYLOAD·🇺🇸 United States

Lanzado Oct 29, 2023 desde Vandenberg Space Force Base

Loading…

Próximos Pases (próximas 24 horas)

TLE

ActualizadoSource: CelesTrak SupGP

Época: Sep 15, 2026, 01:44 UTC

1 58168C 23166U   26258.07270833 -.00025201  00000+0 -74515-3 0  2583
2 58168  53.1597  58.8397 0001240  86.3963 157.4457 15.34378261    16

Sigue STARLINK-30812 en tiempo real con AllMySat

Download on the App Store